Time,TemperatureF,DewpointF,PressureIn,WindDirection,WindDirectionDegrees,WindSpeedMPH,WindSpeedGustMPH,Humidity,HourlyPrecipIn,Conditions,Clouds,dailyrainin,SoftwareType,DateUTC
2013-02-11 00:00:00,26.1,6.1,30.28,ENE,68,0.0,0.0,42,0.00,CLR,,0.00,WeatherDisplay:10.37,2013-02-11 05:00:00,
2013-02-11 00:01:00,26.1,6.1,30.28,NE,45,0.0,0.0,42,0.00,CLR,,0.00,WeatherDisplay:10.37,2013-02-11 05:01:00,
2013-02-11 00:02:00,26.1,6.1,30.28,NE,45,0.0,0.0,42,0.00,CLR,,0.00,WeatherDisplay:10.37,2013-02-11 05:02:00,
2013-02-11 00:07:00,26.1,6.1,30.28,NE,45,0.0,0.0,42,0.00,CLR,,0.00,WeatherDisplay:10.37,2013-02-11 05:07:00,
2013-02-11 00:12:00,26.1,6.1,30.28,NE,45,0.0,0.0,42,0.00,CLR,,0.00,WeatherDisplay:10.37,2013-02-11 05:12:00,
2013-02-11 00:17:00,26.1,6.1,30.27,WSW,248,0.1,0.0,42,0.00,CLR,,0.00,WeatherDisplay:10.37,2013-02-11 05:17:00,
2013-02-11 00:22:00,26.1,6.1,30.27,WSW,248,0.0,0.0,42,0.00,CLR,,0.00,WeatherDisplay:10.37,2013-02-11 05:22:00,
2013-02-11 00:27:00,26.1,6.1,30.27,WSW,248,0.0,0.0,42,0.00,CLR,,0.00,WeatherDisplay:10.37,2013-02-11 05:27:00,
2013-02-11 00:32:00,26.1,6.1,30.27,WSW,248,0.0,0.0,42,0.00,CLR,,0.00,WeatherDisplay:10.37,2013-02-11 05:32:00,
2013-02-11 00:37:00,26.1,6.1,30.26,NNE,22,0.0,0.0,42,0.00,CLR,,0.00,WeatherDisplay:10.37,2013-02-11 05:37:00,
2013-02-11 00:42:00,26.1,6.1,30.26,WSW,248,0.1,0.0,42,0.00,CLR,,0.00,WeatherDisplay:10.37,2013-02-11 05:42:00,
2013-02-11 00:47:00,26.1,6.1,30.26,WSW,248,0.1,0.0,42,0.00,CLR,,0.00,WeatherDisplay:10.37,2013-02-11 05:47:00,
2013-02-11 00:52:00,26.1,6.1,30.26,WSW,248,0.0,0.0,42,0.00,CLR,,0.00,WeatherDisplay:10.37,2013-02-11 05:52:00,
2013-02-11 00:57:00,26.1,6.1,30.26,East,90,0.0,0.0,42,0.00,CLR,,0.00,WeatherDisplay:10.37,2013-02-11 05:57:00,
2013-02-11 01:02:00,26.1,6.1,30.26,East,90,0.0,0.0,42,0.00,SCT,,0.00,WeatherDisplay:10.37,2013-02-11 06:02:00,
2013-02-11 01:08:00,26.1,6.1,30.26,East,90,0.0,0.0,42,0.00,SCT,,0.00,WeatherDisplay:10.37,2013-02-11 06:08:00,
2013-02-11 01:13:00,26.1,6.1,30.26,East,90,0.0,0.0,42,0.00,SCT,,0.00,WeatherDisplay:10.37,2013-02-11 06:13:00,
2013-02-11 01:18:00,26.1,6.1,30.25,East,90,0.0,0.0,42,0.00,SCT,,0.00,WeatherDisplay:10.37,2013-02-11 06:18:00,
2013-02-11 01:24:00,26.1,6.1,30.25,East,90,0.0,0.0,42,0.00,SCT,,0.00,WeatherDisplay:10.37,2013-02-11 06:24:00,
2013-02-11 01:29:00,26.1,6.1,30.25,ENE,68,0.0,0.0,42,0.00,SCT,,0.00,WeatherDisplay:10.37,2013-02-11 06:29:00,
2013-02-11 01:34:00,26.1,6.1,30.25,ENE,68,0.0,0.0,42,0.00,SCT,,0.00,WeatherDisplay:10.37,2013-02-11 06:34:00,
2013-02-11 01:39:00,26.1,6.1,30.23,ENE,68,0.0,0.0,42,0.00,SCT,,0.00,WeatherDisplay:10.37,2013-02-11 06:39:00,
2013-02-11 01:44:00,26.1,6.1,30.23,ENE,68,0.0,0.0,42,0.00,SCT,,0.00,WeatherDisplay:10.37,2013-02-11 06:44:00,
2013-02-11 01:49:00,26.1,6.1,30.23,ENE,68,0.0,0.0,42,0.00,SCT,,0.00,WeatherDisplay:10.37,2013-02-11 06:49:00,
2013-02-11 01:54:00,26.1,6.1,30.23,ENE,68,0.0,0.0,42,0.00,SCT,,0.00,WeatherDisplay:10.37,2013-02-11 06:54:00,
2013-02-11 01:59:00,26.1,6.1,30.23,ENE,68,0.0,0.0,42,0.00,SCT,,0.00,WeatherDisplay:10.37,2013-02-11 06:59:00,
2013-02-11 02:04:00,26.1,6.1,30.23,ENE,68,0.0,0.0,42,0.00,CLR,,0.00,WeatherDisplay:10.37,2013-02-11 07:04:00,
2013-02-11 02:09:00,26.1,6.1,30.23,ENE,68,0.0,0.0,42,0.00,CLR,,0.00,WeatherDisplay:10.37,2013-02-11 07:09:00,
2013-02-11 02:14:00,26.1,6.1,30.23,ENE,68,0.0,0.0,42,0.00,CLR,,0.00,WeatherDisplay:10.37,2013-02-11 07:14:00,
2013-02-11 02:19:00,26.1,6.1,30.22,ENE,68,0.0,0.0,42,0.00,CLR,,0.00,WeatherDisplay:10.37,2013-02-11 07:19:00,
2013-02-11 02:24:00,26.1,6.1,30.22,ENE,68,0.0,0.0,42,0.00,CLR,,0.00,WeatherDisplay:10.37,2013-02-11 07:24:00,
2013-02-11 02:29:00,26.1,6.1,30.22,ENE,68,0.0,0.0,42,0.00,CLR,,0.00,WeatherDisplay:10.37,2013-02-11 07:29:00,
2013-02-11 02:34:00,26.1,6.1,30.22,SW,225,0.0,0.0,42,0.00,CLR,,0.00,WeatherDisplay:10.37,2013-02-11 07:34:00,
2013-02-11 02:39:00,26.1,6.1,30.22,WSW,248,0.0,0.0,42,0.00,CLR,,0.00,WeatherDisplay:10.37,2013-02-11 07:39:00,
2013-02-11 02:44:00,26.1,6.1,30.22,SW,225,0.0,0.0,42,0.00,CLR,,0.00,WeatherDisplay:10.37,2013-02-11 07:44:00,
2013-02-11 02:49:00,26.1,6.1,30.22,SW,225,0.0,0.0,42,0.00,CLR,,0.00,WeatherDisplay:10.37,2013-02-11 07:49:00,
2013-02-11 02:54:00,26.1,6.1,30.22,SSW,202,0.2,0.0,42,0.00,CLR,,0.00,WeatherDisplay:10.37,2013-02-11 07:54:00,
2013-02-11 02:59:00,26.1,6.1,30.20,SSW,202,0.2,2.3,42,0.00,CLR,,0.00,WeatherDisplay:10.37,2013-02-11 07:59:00,
2013-02-11 03:04:00,26.1,6.1,30.20,WSW,248,0.2,1.1,42,0.00,CLR,,0.00,WeatherDisplay:10.37,2013-02-11 08:04:00,
2013-02-11 03:09:00,26.1,6.1,30.20,WSW,248,0.2,1.1,42,0.00,CLR,,0.00,WeatherDisplay:10.37,2013-02-11 08:09:00,
2013-02-11 03:14:00,26.1,6.1,30.20,SSE,158,0.3,0.0,42,0.00,CLR,,0.00,WeatherDisplay:10.37,2013-02-11 08:14:00,
2013-02-11 03:19:00,26.1,6.1,30.20,WSW,248,0.2,2.3,42,0.00,CLR,,0.00,WeatherDisplay:10.37,2013-02-11 08:19:00,
2013-02-11 03:24:00,26.1,6.1,30.20,South,180,0.1,0.0,42,0.00,CLR,,0.00,WeatherDisplay:10.37,2013-02-11 08:24:00,
2013-02-11 03:30:00,26.1,6.1,30.20,SSW,202,0.2,0.0,42,0.00,CLR,,0.00,WeatherDisplay:10.37,2013-02-11 08:30:00,
2013-02-11 03:36:00,26.1,6.1,30.20,SSE,158,0.1,0.0,42,0.00,CLR,,0.00,WeatherDisplay:10.37,2013-02-11 08:36:00,
2013-02-11 03:41:00,26.1,6.1,30.19,SSW,202,0.1,0.0,42,0.00,CLR,,0.00,WeatherDisplay:10.37,2013-02-11 08:41:00,
2013-02-11 03:47:00,26.1,6.1,30.19,South,180,0.2,1.1,42,0.00,CLR,,0.00,WeatherDisplay:10.37,2013-02-11 08:47:00,
2013-02-11 03:52:00,26.1,6.1,30.19,SSE,158,0.2,0.0,42,0.00,CLR,,0.00,WeatherDisplay:10.37,2013-02-11 08:52:00,
2013-02-11 03:57:00,26.1,6.1,30.19,South,180,0.3,0.0,42,0.00,CLR,,0.00,WeatherDisplay:10.37,2013-02-11 08:57:00,
2013-02-11 04:02:00,26.1,6.1,30.19,South,180,0.1,1.1,42,0.00,FEW,,0.00,WeatherDisplay:10.37,2013-02-11 09:02:00,
2013-02-11 04:07:00,26.1,6.1,30.19,ENE,68,0.2,0.0,42,0.00,FEW,,0.00,WeatherDisplay:10.37,2013-02-11 09:07:00,
2013-02-11 04:12:00,26.1,6.1,30.19,ENE,68,0.2,0.0,42,0.00,FEW,,0.00,WeatherDisplay:10.37,2013-02-11 09:12:00,
2013-02-11 04:17:00,26.1,6.1,30.17,NE,45,0.1,1.1,42,0.00,FEW,,0.00,WeatherDisplay:10.37,2013-02-11 09:17:00,
2013-02-11 04:22:00,26.1,6.1,30.17,East,90,0.1,0.0,42,0.00,FEW,,0.00,WeatherDisplay:10.37,2013-02-11 09:22:00,
2013-02-11 04:27:00,26.1,6.1,30.17,ESE,112,0.1,0.0,42,0.00,FEW,,0.00,WeatherDisplay:10.37,2013-02-11 09:27:00,
2013-02-11 04:32:00,26.1,6.1,30.17,South,180,0.1,0.0,42,0.00,FEW,,0.00,WeatherDisplay:10.37,2013-02-11 09:32:00,
2013-02-11 04:37:00,26.1,6.1,30.16,East,90,0.2,2.3,42,0.00,FEW,,0.00,WeatherDisplay:10.37,2013-02-11 09:37:00,
2013-02-11 04:42:00,26.1,6.1,30.16,East,90,0.3,0.0,42,0.00,FEW,,0.00,WeatherDisplay:10.37,2013-02-11 09:42:00,
2013-02-11 04:47:00,26.1,6.1,30.16,NNW,338,0.2,1.1,42,0.00,FEW,,0.00,WeatherDisplay:10.37,2013-02-11 09:47:00,
2013-02-11 04:52:00,26.1,6.1,30.16,ESE,112,0.3,0.0,42,0.00,FEW,,0.00,WeatherDisplay:10.37,2013-02-11 09:52:00,
2013-02-11 04:57:00,26.1,6.1,30.16,SSE,158,0.3,2.3,42,0.00,FEW,,0.00,WeatherDisplay:10.37,2013-02-11 09:57:00,
2013-02-11 05:02:00,26.1,6.1,30.16,SE,135,0.2,1.1,42,0.00,SCT,,0.00,WeatherDisplay:10.37,2013-02-11 10:02:00,
2013-02-11 05:07:00,26.1,6.1,30.16,South,180,0.3,0.0,42,0.00,SCT,,0.00,WeatherDisplay:10.37,2013-02-11 10:07:00,
2013-02-11 05:12:00,26.1,6.1,30.16,NE,45,0.3,1.1,42,0.00,SCT,,0.00,WeatherDisplay:10.37,2013-02-11 10:12:00,
2013-02-11 05:17:00,26.1,6.1,30.17,South,180,0.5,2.3,42,0.00,SCT,,0.00,WeatherDisplay:10.37,2013-02-11 10:17:00,
2013-02-11 05:22:00,26.1,6.1,30.17,East,90,0.6,0.0,42,0.00,SCT,,0.00,WeatherDisplay:10.37,2013-02-11 10:22:00,
2013-02-11 05:27:00,26.1,6.1,30.17,SE,135,0.3,2.3,42,0.00,SCT,,0.00,WeatherDisplay:10.37,2013-02-11 10:27:00,
2013-02-11 05:32:00,26.1,6.1,30.17,East,90,0.3,0.0,42,0.00,SCT,,0.00,WeatherDisplay:10.37,2013-02-11 10:32:00,
2013-02-11 05:37:00,26.1,6.1,30.16,NE,45,0.3,1.1,42,0.00,SCT,,0.00,WeatherDisplay:10.37,2013-02-11 10:37:00,
2013-02-11 05:42:00,26.1,6.1,30.16,ENE,68,0.6,2.3,42,0.00,SCT,,0.00,WeatherDisplay:10.37,2013-02-11 10:42:00,
2013-02-11 05:47:00,26.1,6.1,30.16,NNW,338,0.9,2.3,42,0.00,SCT,,0.00,WeatherDisplay:10.37,2013-02-11 10:47:00,
2013-02-11 05:52:00,26.1,6.1,30.16,NNE,22,0.6,0.0,42,0.00,SCT,,0.00,WeatherDisplay:10.37,2013-02-11 10:52:00,
2013-02-11 05:57:00,26.1,6.1,30.14,ESE,112,0.8,2.3,42,0.00,SCT,,0.00,WeatherDisplay:10.37,2013-02-11 10:57:00,
2013-02-11 06:02:00,26.1,6.1,30.14,NE,45,0.7,1.1,42,0.00,FEW,,0.00,WeatherDisplay:10.37,2013-02-11 11:02:00,
2013-02-11 06:07:00,26.1,6.1,30.14,NE,45,0.7,1.1,42,0.00,FEW,,0.00,WeatherDisplay:10.37,2013-02-11 11:07:00,
2013-02-11 06:12:00,26.1,6.1,30.14,NE,45,0.8,1.1,42,0.00,FEW,,0.00,WeatherDisplay:10.37,2013-02-11 11:12:00,
2013-02-11 06:17:00,26.1,6.1,30.14,NNE,22,0.7,1.1,42,0.00,FEW,,0.00,WeatherDisplay:10.37,2013-02-11 11:17:00,
2013-02-11 06:22:00,26.1,6.1,30.14,East,90,1.0,2.3,42,0.00,FEW,,0.00,WeatherDisplay:10.37,2013-02-11 11:22:00,
2013-02-11 06:27:00,26.1,6.1,30.14,East,90,0.9,1.1,42,0.00,FEW,,0.00,WeatherDisplay:10.37,2013-02-11 11:27:00,
2013-02-11 06:32:00,26.1,6.1,30.14,ENE,68,0.7,0.0,42,0.00,FEW,,0.00,WeatherDisplay:10.37,2013-02-11 11:32:00,
2013-02-11 06:37:00,26.1,6.1,30.14,East,90,0.7,0.0,42,0.00,FEW,,0.00,WeatherDisplay:10.37,2013-02-11 11:37:00,
2013-02-11 06:42:00,27.1,20.9,30.14,ENE,68,0.3,1.1,77,0.00,FEW,,0.00,WeatherDisplay:10.37,2013-02-11 11:42:00,
2013-02-11 06:47:00,27.1,20.9,30.14,SSE,158,0.3,2.3,77,0.00,FEW,,0.00,WeatherDisplay:10.37,2013-02-11 11:47:00,
2013-02-11 06:52:00,27.1,20.9,30.14,SSE,158,0.6,1.1,77,0.00,FEW,,0.00,WeatherDisplay:10.37,2013-02-11 11:52:00,
2013-02-11 06:57:00,27.5,21.5,30.14,SSE,158,0.5,0.0,78,0.00,FEW,,0.00,WeatherDisplay:10.37,2013-02-11 11:57:00,
2013-02-11 07:02:00,27.7,21.7,30.13,NE,45,0.6,2.3,78,0.00,OVC,,0.00,WeatherDisplay:10.37,2013-02-11 12:02:00,
2013-02-11 07:07:00,27.5,21.5,30.13,East,90,1.1,6.9,78,0.00,OVC,,0.00,WeatherDisplay:10.37,2013-02-11 12:07:00,
2013-02-11 07:12:00,28.4,22.7,30.13,SSW,202,2.0,2.3,79,0.00,OVC,,0.00,WeatherDisplay:10.37,2013-02-11 12:12:00,
2013-02-11 07:17:00,28.9,23.5,30.13,South,180,2.5,3.5,80,0.00,OVC,,0.00,WeatherDisplay:10.37,2013-02-11 12:17:00,
2013-02-11 07:22:00,29.7,24.2,30.12,SW,225,1.6,0.0,80,0.00,OVC,,0.00,WeatherDisplay:10.37,2013-02-11 12:22:00,
2013-02-11 07:27:00,29.7,24.2,30.12,SSW,202,1.6,2.3,80,0.00,OVC,,0.00,WeatherDisplay:10.37,2013-02-11 12:27:00,
2013-02-11 07:32:00,29.7,24.2,30.12,South,180,1.3,2.3,80,0.00,OVC,,0.00,WeatherDisplay:10.37,2013-02-11 12:32:00,
2013-02-11 07:37:00,30.4,24.9,30.12,SE,135,0.8,2.3,80,0.00,OVC,,0.00,WeatherDisplay:10.37,2013-02-11 12:37:00,
2013-02-11 07:42:00,30.4,24.9,30.11,SSE,158,0.8,0.0,80,0.00,OVC,,0.00,WeatherDisplay:10.37,2013-02-11 12:42:00,
2013-02-11 07:47:00,30.6,25.1,30.11,ENE,68,1.1,2.3,80,0.00,OVC,,0.00,WeatherDisplay:10.37,2013-02-11 12:47:00,
2013-02-11 07:52:00,30.6,25.1,30.11,SSE,158,1.8,4.6,80,0.00,OVC,,0.00,WeatherDisplay:10.37,2013-02-11 12:52:00,
2013-02-11 07:57:00,30.6,25.1,30.11,SW,225,1.5,2.3,80,0.00,OVC,,0.00,WeatherDisplay:10.37,2013-02-11 12:57:00,
2013-02-11 08:02:00,30.6,25.1,30.10,SW,225,0.9,3.5,80,0.00,OVC,,0.00,WeatherDisplay:10.37,2013-02-11 13:02:00,
2013-02-11 08:08:00,30.6,25.1,30.10,SSW,202,0.7,2.3,80,0.00,OVC,,0.00,WeatherDisplay:10.37,2013-02-11 13:08:00,
2013-02-11 08:13:00,30.6,25.1,30.10,ENE,68,0.9,3.5,80,0.00,OVC,,0.00,WeatherDisplay:10.37,2013-02-11 13:13:00,
2013-02-11 08:18:00,30.6,25.1,30.08,ENE,68,1.1,1.1,80,0.00,OVC,,0.00,WeatherDisplay:10.37,2013-02-11 13:18:00,
2013-02-11 08:23:00,30.6,25.1,30.08,SE,135,0.9,1.1,80,0.00,OVC,,0.00,WeatherDisplay:10.37,2013-02-11 13:23:00,
2013-02-11 08:28:00,30.6,25.1,30.08,ENE,68,0.7,2.3,80,0.00,OVC,,0.00,WeatherDisplay:10.37,2013-02-11 13:28:00,
2013-02-11 08:33:00,30.6,25.1,30.08,WSW,248,0.8,2.3,80,0.00,OVC,,0.00,WeatherDisplay:10.37,2013-02-11 13:33:00,
2013-02-11 08:38:00,30.6,25.1,30.08,South,180,1.1,2.0,80,0.00,OVC,,0.00,WeatherDisplay:10.37,2013-02-11 13:38:00,
2013-02-11 08:43:00,30.6,25.1,30.08,South,180,0.9,1.4,80,0.00,OVC,,0.00,WeatherDisplay:10.37,2013-02-11 13:43:00,
2013-02-11 08:48:00,30.6,25.1,30.08,SSE,158,1.1,2.3,80,0.00,OVC,,0.00,WeatherDisplay:10.37,2013-02-11 13:48:00,
2013-02-11 08:53:00,30.6,25.1,30.08,SE,135,1.7,2.3,80,0.00,OVC,,0.00,WeatherDisplay:10.37,2013-02-11 13:53:00,
2013-02-11 08:58:00,30.6,25.1,30.10,South,180,1.1,1.1,80,0.00,OVC,,0.00,WeatherDisplay:10.37,2013-02-11 13:58:00,
2013-02-11 09:03:00,30.6,25.1,30.10,SE,135,0.9,4.6,80,0.00,-SN,,0.00,WeatherDisplay:10.37,2013-02-11 14:03:00,
2013-02-11 09:08:00,30.6,25.1,30.10,SSE,158,0.9,2.3,80,0.00,-SN,,0.00,WeatherDisplay:10.37,2013-02-11 14:08:00,
2013-02-11 09:13:00,30.6,25.1,30.10,ESE,112,1.1,2.3,80,0.00,-SN,,0.00,WeatherDisplay:10.37,2013-02-11 14:13:00,
2013-02-11 09:18:00,30.6,25.1,30.10,SSE,158,1.3,2.3,80,0.00,-SN,,0.00,WeatherDisplay:10.37,2013-02-11 14:18:00,
2013-02-11 09:24:00,30.6,25.1,30.10,SW,225,1.0,1.1,80,0.00,-SN,,0.00,WeatherDisplay:10.37,2013-02-11 14:24:00,
2013-02-11 09:29:00,30.6,25.1,30.10,East,90,0.8,1.1,80,0.00,-SN,,0.00,WeatherDisplay:10.37,2013-02-11 14:29:00,
2013-02-11 09:34:00,30.6,25.1,30.10,SE,135,0.7,1.1,80,0.00,-SN,,0.00,WeatherDisplay:10.37,2013-02-11 14:34:00,
2013-02-11 09:39:00,30.6,25.1,30.07,NNE,22,1.1,2.3,80,0.00,-SN,,0.00,WeatherDisplay:10.37,2013-02-11 14:39:00,
2013-02-11 09:44:00,30.6,25.1,30.07,SSW,202,1.4,4.6,80,0.00,-SN,,0.00,WeatherDisplay:10.37,2013-02-11 14:44:00,
2013-02-11 09:49:00,30.6,25.1,30.07,SE,135,1.4,2.3,80,0.00,-SN,,0.00,WeatherDisplay:10.37,2013-02-11 14:49:00,
2013-02-11 09:54:00,30.6,25.1,30.07,South,180,1.4,2.3,80,0.00,-SN,,0.00,WeatherDisplay:10.37,2013-02-11 14:54:00,
2013-02-11 10:00:00,30.6,25.1,30.04,SW,225,0.9,1.1,80,0.00,-SN,,0.00,WeatherDisplay:10.37,2013-02-11 15:00:00,
2013-02-11 10:05:00,30.6,25.1,30.04,ENE,68,0.6,3.5,80,0.00,OVC,,0.00,WeatherDisplay:10.37,2013-02-11 15:05:00,
2013-02-11 10:10:00,30.6,25.1,30.04,ESE,112,0.3,1.1,80,0.00,OVC,,0.00,WeatherDisplay:10.37,2013-02-11 15:10:00,
2013-02-11 10:15:00,30.6,25.1,30.04,SW,225,0.6,0.0,80,0.00,OVC,,0.00,WeatherDisplay:10.37,2013-02-11 15:15:00,
2013-02-11 10:20:00,30.6,25.1,30.01,South,180,0.3,1.1,80,0.00,OVC,,0.00,WeatherDisplay:10.37,2013-02-11 15:20:00,
2013-02-11 10:25:00,30.6,25.1,30.01,East,90,0.2,0.0,80,0.00,OVC,,0.00,WeatherDisplay:10.37,2013-02-11 15:25:00,
2013-02-11 10:30:00,30.6,25.1,30.01,ENE,68,0.2,0.0,80,0.00,OVC,,0.00,WeatherDisplay:10.37,2013-02-11 15:30:00,
2013-02-11 10:35:00,30.6,25.1,30.01,ESE,112,0.3,1.1,80,0.00,OVC,,0.00,WeatherDisplay:10.37,2013-02-11 15:35:00,
2013-02-11 10:40:00,30.6,25.1,30.04,ENE,68,0.3,1.1,80,0.00,OVC,,0.00,WeatherDisplay:10.37,2013-02-11 15:40:00,
2013-02-11 10:45:00,30.6,25.1,30.04,SE,135,0.6,1.1,80,0.00,OVC,,0.00,WeatherDisplay:10.37,2013-02-11 15:45:00,
2013-02-11 10:50:00,30.6,25.1,30.04,SSW,202,0.8,2.3,80,0.00,OVC,,0.00,WeatherDisplay:10.37,2013-02-11 15:50:00,
2013-02-11 10:55:00,30.6,25.1,30.04,East,90,1.0,2.3,80,0.00,OVC,,0.00,WeatherDisplay:10.37,2013-02-11 15:55:00,
2013-02-11 11:00:00,30.6,25.1,30.03,East,90,0.8,1.1,80,0.00,OVC,,0.00,WeatherDisplay:10.37,2013-02-11 16:00:00,
2013-02-11 11:05:00,30.6,25.1,30.03,South,180,0.3,0.0,80,0.00,OVC,,0.00,WeatherDisplay:10.37,2013-02-11 16:05:00,
2013-02-11 11:10:00,30.6,25.1,30.03,NE,45,0.3,1.1,80,0.00,OVC,,0.00,WeatherDisplay:10.37,2013-02-11 16:10:00,
2013-02-11 11:15:00,30.6,25.1,30.03,ESE,112,0.3,0.0,80,0.00,OVC,,0.00,WeatherDisplay:10.37,2013-02-11 16:15:00,
2013-02-11 11:20:00,30.6,25.1,30.01,East,90,0.1,0.0,80,0.00,OVC,,0.00,WeatherDisplay:10.37,2013-02-11 16:20:00,
2013-02-11 11:25:00,30.6,25.1,30.01,East,90,0.2,1.1,80,0.00,OVC,,0.00,WeatherDisplay:10.37,2013-02-11 16:25:00,
2013-02-11 11:30:00,30.6,25.1,30.01,SE,135,0.2,0.0,80,0.00,OVC,,0.00,WeatherDisplay:10.37,2013-02-11 16:30:00,
2013-02-11 11:35:00,30.6,25.1,30.01,SSE,158,0.2,1.1,80,0.00,OVC,,0.00,WeatherDisplay:10.37,2013-02-11 16:35:00,
2013-02-11 11:40:00,30.6,25.1,29.98,ESE,112,0.2,1.1,80,0.00,OVC,,0.00,WeatherDisplay:10.37,2013-02-11 16:40:00,
2013-02-11 11:45:00,30.6,25.1,29.98,ENE,68,0.3,1.1,80,0.00,OVC,,0.00,WeatherDisplay:10.37,2013-02-11 16:45:00,
2013-02-11 11:50:00,30.6,25.1,29.98,ESE,112,0.2,0.0,80,0.00,OVC,,0.00,WeatherDisplay:10.37,2013-02-11 16:50:00,
2013-02-11 11:55:00,30.6,25.1,29.98,South,180,0.3,1.1,80,0.01,RA,,0.01,WeatherDisplay:10.37,2013-02-11 16:55:00,
2013-02-11 12:00:00,30.6,25.1,29.95,SE,135,0.5,0.0,80,0.01,RA,,0.01,WeatherDisplay:10.37,2013-02-11 17:00:00,
2013-02-11 12:05:00,30.6,25.1,29.95,SE,135,0.2,0.0,80,0.01,,,0.01,WeatherDisplay:10.37,2013-02-11 17:05:00,
2013-02-11 12:10:00,30.6,25.1,29.95,SE,135,0.2,0.0,80,0.01,CLR,,0.01,WeatherDisplay:10.37,2013-02-11 17:10:00,
2013-02-11 12:15:00,30.6,25.1,29.95,South,180,0.2,0.0,80,0.01,CLR,,0.01,WeatherDisplay:10.37,2013-02-11 17:15:00,
2013-02-11 12:20:00,30.6,25.1,29.92,SSW,202,0.0,0.0,80,0.01,CLR,,0.03,WeatherDisplay:10.37,2013-02-11 17:20:00,
2013-02-11 12:25:00,30.6,25.1,29.92,South,180,0.0,0.0,80,0.03,RA,,0.03,WeatherDisplay:10.37,2013-02-11 17:25:00,
2013-02-11 12:30:00,30.6,25.1,29.92,SW,225,0.0,0.0,80,0.03,RA,,0.04,WeatherDisplay:10.37,2013-02-11 17:30:00,
2013-02-11 12:35:00,30.6,25.1,29.92,SW,225,0.0,0.0,80,0.04,RA,,0.04,WeatherDisplay:10.37,2013-02-11 17:35:00,
2013-02-11 12:40:00,30.6,25.1,29.93,South,180,0.2,0.0,80,0.04,RA,,0.04,WeatherDisplay:10.37,2013-02-11 17:40:00,
2013-02-11 12:45:00,30.6,25.1,29.93,SSE,158,0.2,0.0,80,0.04,CLR,,0.04,WeatherDisplay:10.37,2013-02-11 17:45:00,
2013-02-11 12:50:00,30.6,25.1,29.93,SSE,158,0.0,0.0,80,0.04,CLR,,0.04,WeatherDisplay:10.37,2013-02-11 17:50:00,
2013-02-11 12:55:00,30.6,25.1,29.93,SSE,158,0.0,0.0,80,0.03,CLR,,0.04,WeatherDisplay:10.37,2013-02-11 17:55:00,
2013-02-11 13:00:00,30.6,25.1,29.91,ENE,68,0.0,0.0,80,0.03,CLR,,0.04,WeatherDisplay:10.37,2013-02-11 18:00:00,
2013-02-11 13:05:00,30.6,25.1,29.91,SE,135,0.1,1.1,80,0.03,CLR,,0.04,WeatherDisplay:10.37,2013-02-11 18:05:00,
2013-02-11 13:10:00,30.6,25.1,29.91,SE,135,0.1,0.0,80,0.03,CLR,,0.04,WeatherDisplay:10.37,2013-02-11 18:10:00,
2013-02-11 13:15:00,30.6,25.1,29.91,South,180,0.1,1.1,80,0.03,CLR,,0.04,WeatherDisplay:10.37,2013-02-11 18:15:00,
2013-02-11 13:20:00,30.6,25.1,29.87,SSE,158,0.3,1.1,80,0.03,CLR,,0.04,WeatherDisplay:10.37,2013-02-11 18:20:00,
2013-02-11 13:25:00,30.6,25.1,29.87,SSE,158,0.3,0.0,80,0.03,RA,,0.06,WeatherDisplay:10.37,2013-02-11 18:25:00,
2013-02-11 13:30:00,30.6,25.1,29.87,SE,135,0.3,0.0,80,0.03,RA,,0.06,WeatherDisplay:10.37,2013-02-11 18:30:00,
2013-02-11 13:36:00,30.6,25.1,29.87,ENE,68,0.2,1.1,80,0.01,CLR,,0.06,WeatherDisplay:10.37,2013-02-11 18:36:00,
2013-02-11 13:41:00,30.6,25.1,29.84,WNW,292,0.1,0.0,80,0.01,CLR,,0.06,WeatherDisplay:10.37,2013-02-11 18:41:00,
2013-02-11 13:46:00,30.6,25.1,29.84,East,90,0.2,0.0,80,0.03,RA,,0.07,WeatherDisplay:10.37,2013-02-11 18:46:00,
2013-02-11 13:52:00,30.6,25.1,29.84,ENE,68,0.6,3.5,80,0.03,RA,,0.07,WeatherDisplay:10.37,2013-02-11 18:52:00,
2013-02-11 13:57:00,30.6,25.1,29.84,ESE,112,1.0,2.3,80,0.03,,,0.07,WeatherDisplay:10.37,2013-02-11 18:57:00,
2013-02-11 14:02:00,30.6,25.1,29.83,WNW,292,1.1,0.0,80,0.03,-RA,,0.07,WeatherDisplay:10.37,2013-02-11 19:02:00,
2013-02-11 14:07:00,30.6,25.1,29.83,SSW,202,0.8,1.1,80,0.03,-RA,,0.07,WeatherDisplay:10.37,2013-02-11 19:07:00,
2013-02-11 14:13:00,30.6,25.1,29.83,NE,45,1.1,2.3,80,0.03,-RA,,0.07,WeatherDisplay:10.37,2013-02-11 19:13:00,
2013-02-11 14:18:00,30.6,25.1,29.82,SW,225,1.5,2.3,80,0.03,-RA,,0.07,WeatherDisplay:10.37,2013-02-11 19:18:00,
2013-02-11 14:23:00,30.6,25.1,29.82,South,180,1.1,2.3,80,0.03,-RA,,0.07,WeatherDisplay:10.37,2013-02-11 19:23:00,
2013-02-11 14:28:00,30.6,25.1,29.82,SSE,158,1.5,4.6,80,0.01,-RA,,0.07,WeatherDisplay:10.37,2013-02-11 19:28:00,
2013-02-11 14:33:00,30.6,25.1,29.82,NNW,338,1.5,3.5,80,0.01,-RA,,0.07,WeatherDisplay:10.37,2013-02-11 19:33:00,
2013-02-11 14:38:00,30.6,25.1,29.77,South,180,1.6,10.4,80,0.01,-RA,,0.08,WeatherDisplay:10.37,2013-02-11 19:38:00,
2013-02-11 14:43:00,30.6,25.1,29.77,WNW,292,2.0,3.5,80,0.03,-RA,,0.08,WeatherDisplay:10.37,2013-02-11 19:43:00,
2013-02-11 14:48:00,30.6,25.1,29.77,WSW,248,2.1,5.8,80,0.01,-RA,,0.08,WeatherDisplay:10.37,2013-02-11 19:48:00,
2013-02-11 14:53:00,30.6,25.1,29.77,NW,315,1.4,1.4,80,0.01,-RA,,0.08,WeatherDisplay:10.37,2013-02-11 19:53:00,
2013-02-11 14:58:00,30.6,25.1,29.76,WNW,292,1.5,4.6,80,0.01,-RA,,0.08,WeatherDisplay:10.37,2013-02-11 19:58:00,
2013-02-11 15:03:00,30.6,25.1,29.76,SW,225,1.8,4.6,80,0.01,-RA,,0.08,WeatherDisplay:10.37,2013-02-11 20:03:00,
2013-02-11 15:08:00,30.6,25.1,29.76,ENE,68,1.7,2.0,80,0.01,-RA,,0.08,WeatherDisplay:10.37,2013-02-11 20:08:00,
2013-02-11 15:13:00,30.6,25.1,29.76,South,180,1.1,2.3,80,0.01,-RA,,0.08,WeatherDisplay:10.37,2013-02-11 20:13:00,
2013-02-11 15:18:00,30.6,25.1,29.76,SSW,202,1.1,3.5,80,0.01,-RA,,0.08,WeatherDisplay:10.37,2013-02-11 20:18:00,
2013-02-11 15:23:00,30.6,25.1,29.74,SW,225,1.5,3.5,80,0.01,-RA,,0.08,WeatherDisplay:10.37,2013-02-11 20:23:00,
2013-02-11 15:28:00,30.6,25.1,29.74,SSW,202,2.0,2.3,80,0.01,-RA,,0.08,WeatherDisplay:10.37,2013-02-11 20:28:00,
2013-02-11 15:33:00,30.6,25.1,29.74,South,180,2.1,3.5,80,0.01,-RA,,0.08,WeatherDisplay:10.37,2013-02-11 20:33:00,
2013-02-11 15:38:00,30.6,25.1,29.73,SW,225,1.5,2.5,80,0.01,-RA,,0.08,WeatherDisplay:10.37,2013-02-11 20:38:00,
2013-02-11 15:43:00,30.6,25.1,29.73,South,180,1.3,2.3,80,0.00,-RA,,0.08,WeatherDisplay:10.37,2013-02-11 20:43:00,
2013-02-11 15:48:00,30.6,25.1,29.73,SW,225,1.4,1.4,80,0.00,-RA,,0.08,WeatherDisplay:10.37,2013-02-11 20:48:00,
2013-02-11 15:53:00,30.6,25.1,29.73,NW,315,0.8,1.1,80,0.01,-RA,,0.10,WeatherDisplay:10.37,2013-02-11 20:53:00,
2013-02-11 15:58:00,41.5,37.4,29.72,SSW,202,1.1,5.8,85,0.01,-RA,,0.10,WeatherDisplay:10.37,2013-02-11 20:58:00,
2013-02-11 16:03:00,41.7,37.5,29.72,NNW,338,1.4,2.3,85,0.01,CLR,,0.10,WeatherDisplay:10.37,2013-02-11 21:03:00,
2013-02-11 16:08:00,42.1,37.9,29.72,SSW,202,1.6,6.4,85,0.03,RA,,0.11,WeatherDisplay:10.37,2013-02-11 21:08:00,
2013-02-11 16:13:00,41.9,37.7,29.72,SSE,158,1.4,2.3,85,0.03,RA,,0.11,WeatherDisplay:10.37,2013-02-11 21:13:00,
2013-02-11 16:18:00,41.9,37.7,29.72,NNW,338,1.1,1.1,85,0.03,CLR,,0.11,WeatherDisplay:10.37,2013-02-11 21:18:00,
2013-02-11 16:23:00,41.9,37.7,29.70,SW,225,0.7,3.5,85,0.04,RA,,0.12,WeatherDisplay:10.37,2013-02-11 21:23:00,
2013-02-11 16:28:00,41.9,37.7,29.70,SW,225,1.0,2.3,85,0.04,RA,,0.12,WeatherDisplay:10.37,2013-02-11 21:28:00,
2013-02-11 16:33:00,41.4,37.2,29.70,NNW,338,1.0,3.5,85,0.04,CLR,,0.12,WeatherDisplay:10.37,2013-02-11 21:33:00,
2013-02-11 16:38:00,41.9,37.7,29.69,WSW,248,1.1,2.3,85,0.04,CLR,,0.12,WeatherDisplay:10.37,2013-02-11 21:38:00,
2013-02-11 16:43:00,41.5,37.4,29.69,South,180,1.5,2.3,85,0.04,CLR,,0.12,WeatherDisplay:10.37,2013-02-11 21:43:00,
2013-02-11 16:48:00,41.9,37.7,29.69,WSW,248,1.5,3.5,85,0.06,RA,,0.14,WeatherDisplay:10.37,2013-02-11 21:48:00,
2013-02-11 16:53:00,41.7,37.5,29.69,SW,225,2.0,2.0,85,0.04,RA,,0.14,WeatherDisplay:10.37,2013-02-11 21:53:00,
2013-02-11 16:58:00,41.9,37.7,29.69,SSW,202,2.0,8.1,85,0.04,,,0.14,WeatherDisplay:10.37,2013-02-11 21:58:00,
2013-02-11 17:03:00,41.9,37.7,29.68,SSW,202,2.4,4.8,85,0.04,CLR,,0.14,WeatherDisplay:10.37,2013-02-11 22:03:00,
2013-02-11 17:08:00,42.1,37.9,29.68,WSW,248,2.6,3.5,85,0.03,CLR,,0.14,WeatherDisplay:10.37,2013-02-11 22:08:00,
2013-02-11 17:14:00,41.9,37.7,29.68,South,180,2.6,2.6,85,0.03,CLR,,0.14,WeatherDisplay:10.37,2013-02-11 22:14:00,
2013-02-11 17:19:00,42.1,37.9,29.68,SSW,202,2.6,6.9,85,0.03,CLR,,0.14,WeatherDisplay:10.37,2013-02-11 22:19:00,
2013-02-11 17:24:00,42.1,37.9,29.68,SSW,202,2.5,2.5,85,0.03,RA,,0.15,WeatherDisplay:10.37,2013-02-11 22:24:00,
2013-02-11 17:29:00,41.9,37.7,29.68,South,180,2.5,3.9,85,0.03,RA,,0.15,WeatherDisplay:10.37,2013-02-11 22:29:00,
2013-02-11 17:34:00,41.5,37.4,29.68,WSW,248,1.8,2.3,85,0.03,CLR,,0.15,WeatherDisplay:10.37,2013-02-11 22:34:00,
2013-02-11 17:39:00,42.1,37.9,29.67,SW,225,2.0,3.5,85,0.03,CLR,,0.15,WeatherDisplay:10.37,2013-02-11 22:39:00,
2013-02-11 17:44:00,42.1,37.9,29.67,West,270,2.3,2.3,85,0.03,CLR,,0.15,WeatherDisplay:10.37,2013-02-11 22:44:00,
2013-02-11 17:49:00,42.3,38.1,29.67,SW,225,2.3,2.3,85,0.01,CLR,,0.15,WeatherDisplay:10.37,2013-02-11 22:49:00,
2013-02-11 17:54:00,42.3,38.1,29.67,NNE,22,1.7,1.7,85,0.01,CLR,,0.15,WeatherDisplay:10.37,2013-02-11 22:54:00,
2013-02-11 17:59:00,42.1,37.9,29.67,SW,225,1.7,3.5,85,0.01,CLR,,0.15,WeatherDisplay:10.37,2013-02-11 22:59:00,
2013-02-11 18:04:00,41.9,37.7,29.67,NNE,22,2.0,4.6,85,0.03,RA,,0.17,WeatherDisplay:10.37,2013-02-11 23:04:00,
2013-02-11 18:09:00,41.9,37.7,29.67,SSW,202,2.0,2.3,85,0.03,RA,,0.17,WeatherDisplay:10.37,2013-02-11 23:09:00,
2013-02-11 18:14:00,41.9,37.7,29.67,SSW,202,2.0,2.3,85,0.03,OVC,,0.17,WeatherDisplay:10.37,2013-02-11 23:14:00,
2013-02-11 18:19:00,41.4,37.2,29.67,SW,225,1.1,0.0,85,0.03,OVC,,0.17,WeatherDisplay:10.37,2013-02-11 23:19:00,
2013-02-11 18:24:00,41.2,37.0,29.67,SSW,202,0.8,3.5,85,0.01,OVC,,0.17,WeatherDisplay:10.37,2013-02-11 23:24:00,
2013-02-11 18:29:00,41.0,36.8,29.67,WNW,292,1.0,1.1,85,0.01,OVC,,0.17,WeatherDisplay:10.37,2013-02-11 23:29:00,
2013-02-11 18:34:00,41.2,37.0,29.67,SW,225,1.1,4.6,85,0.01,OVC,,0.17,WeatherDisplay:10.37,2013-02-11 23:34:00,
2013-02-11 18:39:00,40.6,36.5,29.66,NNW,338,1.1,2.3,85,0.01,OVC,,0.17,WeatherDisplay:10.37,2013-02-11 23:39:00,
2013-02-11 18:44:00,40.6,36.5,29.66,SSE,158,0.9,2.3,85,0.01,OVC,,0.17,WeatherDisplay:10.37,2013-02-11 23:44:00,
2013-02-11 18:49:00,40.6,36.5,29.66,South,180,1.1,1.1,85,0.01,OVC,,0.17,WeatherDisplay:10.37,2013-02-11 23:49:00,
2013-02-11 18:54:00,40.8,36.7,29.66,SSE,158,1.4,2.3,85,0.01,OVC,,0.17,WeatherDisplay:10.37,2013-02-11 23:54:00,
2013-02-11 18:59:00,41.2,37.0,29.66,WNW,292,1.8,1.8,85,0.01,OVC,,0.17,WeatherDisplay:10.37,2013-02-11 23:59:00,
2013-02-11 19:04:00,41.2,37.0,29.66,SSW,202,2.2,2.3,85,0.00,OVC,,0.17,WeatherDisplay:10.37,2013-02-12 00:04:00,
2013-02-11 19:09:00,41.4,37.2,29.66,SW,225,2.1,2.1,85,0.00,OVC,,0.17,WeatherDisplay:10.37,2013-02-12 00:09:00,
2013-02-11 19:14:00,41.4,37.2,29.66,SW,225,2.0,2.3,85,0.00,OVC,,0.17,WeatherDisplay:10.37,2013-02-12 00:14:00,
2013-02-11 19:19:00,41.2,37.3,29.65,SW,225,1.8,2.3,86,0.00,OVC,,0.17,WeatherDisplay:10.37,2013-02-12 00:19:00,
2013-02-11 19:24:00,41.5,37.7,29.65,East,90,2.1,4.6,86,0.01,RA,,0.18,WeatherDisplay:10.37,2013-02-12 00:24:00,
2013-02-11 19:29:00,41.2,37.3,29.65,SE,135,2.0,0.0,86,0.01,RA,,0.18,WeatherDisplay:10.37,2013-02-12 00:29:00,
2013-02-11 19:34:00,41.2,37.3,29.65,ENE,68,1.5,2.3,86,0.01,RA,,0.18,WeatherDisplay:10.37,2013-02-12 00:34:00,
2013-02-11 19:39:00,41.2,37.3,29.69,NE,45,1.4,2.3,86,0.01,OVC,,0.18,WeatherDisplay:10.37,2013-02-12 00:39:00,
2013-02-11 19:44:00,41.4,37.5,29.69,SW,225,1.5,2.3,86,0.01,OVC,,0.18,WeatherDisplay:10.37,2013-02-12 00:44:00,
2013-02-11 19:49:00,41.2,37.3,29.69,NNW,338,1.4,0.0,86,0.01,OVC,,0.18,WeatherDisplay:10.37,2013-02-12 00:49:00,
2013-02-11 19:54:00,40.8,37.0,29.69,NNW,338,1.0,2.3,86,0.01,OVC,,0.18,WeatherDisplay:10.37,2013-02-12 00:54:00,
2013-02-11 19:59:00,40.8,37.0,29.69,SW,225,1.1,3.5,86,0.01,OVC,,0.18,WeatherDisplay:10.37,2013-02-12 00:59:00,
2013-02-11 20:04:00,41.2,37.3,29.69,WNW,292,1.1,2.3,86,0.01,CLR,,0.18,WeatherDisplay:10.37,2013-02-12 01:04:00,
2013-02-11 20:10:00,40.6,36.8,29.69,SW,225,1.5,2.3,86,0.01,CLR,,0.18,WeatherDisplay:10.37,2013-02-12 01:10:00,
2013-02-11 20:15:00,40.6,36.8,29.69,SW,225,1.5,2.3,86,0.01,CLR,,0.18,WeatherDisplay:10.37,2013-02-12 01:15:00,
2013-02-11 20:20:00,40.5,36.6,29.63,East,90,1.1,3.5,86,0.01,CLR,,0.18,WeatherDisplay:10.37,2013-02-12 01:20:00,
2013-02-11 20:25:00,40.5,36.6,29.63,WSW,248,1.1,1.1,86,0.00,CLR,,0.18,WeatherDisplay:10.37,2013-02-12 01:25:00,
2013-02-11 20:31:00,40.5,36.6,29.63,South,180,1.1,2.3,86,0.00,CLR,,0.18,WeatherDisplay:10.37,2013-02-12 01:31:00,
2013-02-11 20:36:00,40.5,36.6,29.63,SSW,202,1.6,2.3,86,0.00,CLR,,0.18,WeatherDisplay:10.37,2013-02-12 01:36:00,
2013-02-11 20:41:00,40.8,37.0,29.61,SW,225,1.5,3.5,86,0.00,CLR,,0.18,WeatherDisplay:10.37,2013-02-12 01:41:00,
2013-02-11 20:46:00,40.6,36.8,29.61,NW,315,2.0,2.3,86,0.00,CLR,,0.18,WeatherDisplay:10.37,2013-02-12 01:46:00,
2013-02-11 20:51:00,40.6,36.8,29.61,South,180,2.0,4.6,86,0.00,CLR,,0.18,WeatherDisplay:10.37,2013-02-12 01:51:00,
2013-02-11 20:56:00,40.6,36.8,29.61,SW,225,2.0,4.6,86,0.00,CLR,,0.18,WeatherDisplay:10.37,2013-02-12 01:56:00,
2013-02-11 21:01:00,40.6,36.8,29.61,SSW,202,1.5,2.3,86,0.00,CLR,,0.18,WeatherDisplay:10.37,2013-02-12 02:01:00,
2013-02-11 21:06:00,40.6,36.8,29.61,SE,135,1.6,4.6,86,0.00,CLR,,0.18,WeatherDisplay:10.37,2013-02-12 02:06:00,
2013-02-11 21:11:00,40.8,37.0,29.61,NW,315,2.0,3.5,86,0.00,CLR,,0.18,WeatherDisplay:10.37,2013-02-12 02:11:00,
2013-02-11 21:16:00,40.8,37.0,29.61,South,180,2.0,4.6,86,0.00,CLR,,0.18,WeatherDisplay:10.37,2013-02-12 02:16:00,
2013-02-11 21:21:00,40.6,36.8,29.60,WNW,292,2.0,4.6,86,0.00,CLR,,0.18,WeatherDisplay:10.37,2013-02-12 02:21:00,
2013-02-11 21:26:00,40.6,36.8,29.60,NNW,338,2.1,3.5,86,0.00,CLR,,0.18,WeatherDisplay:10.37,2013-02-12 02:26:00,
2013-02-11 21:31:00,40.6,36.8,29.60,SW,225,2.0,3.5,86,0.00,CLR,,0.18,WeatherDisplay:10.37,2013-02-12 02:31:00,
2013-02-11 21:36:00,40.1,36.2,29.60,West,270,1.7,2.3,86,0.00,CLR,,0.18,WeatherDisplay:10.37,2013-02-12 02:36:00,
2013-02-11 21:41:00,40.3,36.4,29.61,WSW,248,2.3,5.8,86,0.00,CLR,,0.18,WeatherDisplay:10.37,2013-02-12 02:41:00,
2013-02-11 21:46:00,40.5,36.6,29.61,WSW,248,2.3,6.9,86,0.00,CLR,,0.18,WeatherDisplay:10.37,2013-02-12 02:46:00,
2013-02-11 21:51:00,40.3,36.4,29.61,WSW,248,2.6,6.9,86,0.00,CLR,,0.18,WeatherDisplay:10.37,2013-02-12 02:51:00,
2013-02-11 21:56:00,40.6,36.8,29.61,WSW,248,2.8,5.8,86,0.00,CLR,,0.18,WeatherDisplay:10.37,2013-02-12 02:56:00,
2013-02-11 22:01:00,40.5,36.6,29.61,SW,225,2.8,4.6,86,0.00,CLR,,0.18,WeatherDisplay:10.37,2013-02-12 03:01:00,
2013-02-11 22:06:00,40.1,36.2,29.61,SW,225,2.4,4.6,86,0.00,OVC,,0.18,WeatherDisplay:10.37,2013-02-12 03:06:00,
2013-02-11 22:11:00,40.1,36.2,29.61,WNW,292,2.2,2.3,86,0.00,OVC,,0.18,WeatherDisplay:10.37,2013-02-12 03:11:00,
2013-02-11 22:16:00,40.5,36.6,29.61,SSE,158,2.6,10.4,86,0.00,OVC,,0.18,WeatherDisplay:10.37,2013-02-12 03:16:00,
2013-02-11 22:21:00,40.1,36.2,29.59,WSW,248,2.8,6.9,86,0.00,OVC,,0.18,WeatherDisplay:10.37,2013-02-12 03:21:00,
2013-02-11 22:26:00,39.9,36.1,29.59,NNW,338,2.8,3.5,86,0.00,OVC,,0.18,WeatherDisplay:10.37,2013-02-12 03:26:00,
2013-02-11 22:31:00,39.9,36.1,29.59,WNW,292,3.0,5.8,86,0.00,OVC,,0.18,WeatherDisplay:10.37,2013-02-12 03:31:00,
2013-02-11 22:36:00,39.9,36.1,29.59,SSW,202,2.2,2.4,86,0.00,OVC,,0.18,WeatherDisplay:10.37,2013-02-12 03:36:00,
2013-02-11 22:41:00,39.9,36.1,29.59,WNW,292,2.1,3.5,86,0.00,OVC,,0.18,WeatherDisplay:10.37,2013-02-12 03:41:00,
2013-02-11 22:46:00,39.9,36.1,29.59,WNW,292,2.3,2.3,86,0.00,OVC,,0.18,WeatherDisplay:10.37,2013-02-12 03:46:00,
2013-02-11 22:51:00,39.7,35.9,29.59,NNW,338,2.6,5.8,86,0.00,OVC,,0.18,WeatherDisplay:10.37,2013-02-12 03:51:00,
2013-02-11 22:56:00,39.7,35.9,29.59,North,0,3.1,3.5,86,0.00,OVC,,0.18,WeatherDisplay:10.37,2013-02-12 03:56:00,
2013-02-11 23:01:00,39.7,35.9,29.60,WSW,248,2.8,2.8,86,0.00,CLR,,0.18,WeatherDisplay:10.37,2013-02-12 04:01:00,
2013-02-11 23:06:00,39.2,35.4,29.60,NW,315,2.4,3.5,86,0.00,CLR,,0.18,WeatherDisplay:10.37,2013-02-12 04:06:00,
2013-02-11 23:11:00,39.6,35.7,29.60,NNW,338,2.6,4.6,86,0.00,CLR,,0.18,WeatherDisplay:10.37,2013-02-12 04:11:00,
2013-02-11 23:16:00,39.4,35.5,29.60,WSW,248,3.1,6.9,86,0.00,CLR,,0.18,WeatherDisplay:10.37,2013-02-12 04:16:00,
2013-02-11 23:21:00,39.2,35.4,29.60,NNW,338,3.2,8.1,86,0.00,CLR,,0.18,WeatherDisplay:10.37,2013-02-12 04:21:00,
2013-02-11 23:26:00,39.4,35.5,29.60,SW,225,3.2,5.2,86,0.00,CLR,,0.18,WeatherDisplay:10.37,2013-02-12 04:26:00,
2013-02-11 23:31:00,39.6,35.7,29.60,WSW,248,3.7,9.2,86,0.00,CLR,,0.18,WeatherDisplay:10.37,2013-02-12 04:31:00,
2013-02-11 23:36:00,39.7,35.9,29.60,NNW,338,4.4,6.9,86,0.00,CLR,,0.18,WeatherDisplay:10.37,2013-02-12 04:36:00,
2013-02-11 23:41:00,39.4,35.5,29.60,West,270,4.3,6.9,86,0.00,CLR,,0.18,WeatherDisplay:10.37,2013-02-12 04:41:00,
2013-02-11 23:46:00,39.0,35.2,29.60,SW,225,3.5,5.8,86,0.00,CLR,,0.18,WeatherDisplay:10.37,2013-02-12 04:46:00,
2013-02-11 23:51:00,38.8,35.0,29.60,NNW,338,2.8,6.9,86,0.00,CLR,,0.18,WeatherDisplay:10.37,2013-02-12 04:51:00,
2013-02-11 23:56:00,38.5,34.7,29.60,South,180,2.8,4.6,86,0.00,CLR,,0.18,WeatherDisplay:10.37,2013-02-12 04:56:00,